Погода в Сейле

Австралия     38°06′13″S   147°04′05″E
темп.,
°C
ветер,
м/с
пор.,
м/с
влажн.,
%
обл.,
%
осадки,
мм/ч
давл.,
гПа
погр.,
м
16 апреля, пт
пт1601:00+11зюз5118488 0.4 1019597
04:00+11зюз388444 0.7 1021311
07:00+8з348776 0.1 102268
10:00+14зюз355019 0.1 10241521
13:00+17зюз34390 0.0 10221700
16:00+17зюз12372 0.0 10211685
19:00+10в22740 0.0 102425
22:00+8сз11820 0.0 102510
17 апреля, сб
сб1701:00+7зсз22860 0.0 102517
04:00+5з22910 0.0 102424
07:00+5сз22890 0.0 102526
10:00+14зюз355713 0.0 1025848
13:00+17юз454393 0.0 10221504
16:00+17зюз4544100 0.0 10221387
19:00+11з34670 0.0 102358
22:00+8сз22780 0.0 102322
18 апреля, вс
вс1801:00+8зсз22795 0.0 102213
04:00+8сз22785 0.0 102118
07:00+7зсз22815 0.0 102119
10:00+16зюз36615 0.0 1021740
13:00+18юз67564 0.0 10191118
16:00+18юз68575 0.0 10191079
19:00+12зюз238710 0.0 102034
22:00+10сз22935 0.0 102025
19 апреля, пн
пн1901:00+9сз22915 0.0 102015
04:00+8сз12910 0.0 101812
07:00+8зсз22910 0.0 101814
10:00+15зюз12630 0.0 1018404
13:00+19ю23460 0.0 1015930
16:00+20ююз45446 0.0 10141034
19:00+12всв34751 0.0 101555
22:00+10с228785 0.0 101518
20 апреля, вт
вт2001:00+13с22708 0.0 101438
04:00+10зсз22796 0.0 101225
07:00+10зсз22775 0.0 101228
10:00+18зсз5125084 0.0 10111427
13:00+19зсз71347100 0.1 10101980
16:00+13зюз71390100 1.9 1012571
19:00+11зюз3790100 0.3 1014358
22:00+11зюз2790100 0.3 1015304